This is the latest recevied weather packets stored in our database for station/object WB5HZM-3. If no packets are shown the sender has not sent any weather packets the latest 10 day(s).
| Time | Temp. | Humidity | Pressure | Rain* | Wind** | Luminosity | Snow |
|---|---|---|---|---|---|---|---|
| 1777847615 | 25.56° C | 43% | 1019.1 hPa | 0 mm | - | - | - |
| 1777847011 | 25.56° C | 44% | 1019.2 hPa | 0 mm | - | - | - |
| 1777846411 | 25° C | 44% | 1019.1 hPa | 0 mm | - | - | - |
| 1777845807 | 25° C | 42% | 1019.3 hPa | 0 mm | - | - | - |
| 1777845203 | 25° C | 41% | 1019.4 hPa | 0 mm | - | - | - |
| 1777844603 | 25° C | 41% | 1019.7 hPa | 0 mm | - | - | - |
| 1777843999 | 25° C | 40% | 1019.7 hPa | 0 mm | - | - | - |
| 1777843415 | 25° C | 40% | 1019.9 hPa | 0 mm | - | - | - |
| 1777842810 | 24.44° C | 41% | 1020.1 hPa | 0 mm | - | - | - |
| 1777842210 | 24.44° C | 40% | 1020.2 hPa | 0 mm | - | - | - |
| 1777841605 | 25° C | 39% | 1020.4 hPa | 0 mm | - | - | - |
| 1777841000 | 24.44° C | 40% | 1020.5 hPa | 0 mm | - | - | - |
| 1777840400 | 24.44° C | 41% | 1020.8 hPa | 0 mm | - | - | - |
| 1777839796 | 24.44° C | 40% | 1021 hPa | 0 mm | - | - | - |
| 1777839212 | 24.44° C | 43% | 1021.1 hPa | 0 mm | - | - | - |
| 1777838611 | 24.44° C | 43% | 1021.3 hPa | 0 mm | - | - | - |
| 1777838007 | 23.89° C | 47% | 1021.5 hPa | 0 mm | - | - | - |
| 1777837403 | 23.89° C | 49% | 1021.7 hPa | 0 mm | - | - | - |
| 1777836797 | 23.89° C | 48% | 1021.8 hPa | 0 mm | - | - | - |
| 1777836196 | 23.89° C | 51% | 1021.9 hPa | 0 mm | - | - | - |
| 1777835611 | 23.89° C | 50% | 1021.9 hPa | 0 mm | - | - | - |
| 1777835007 | 23.89° C | 53% | 1022 hPa | 0 mm | - | - | - |
| 1777834407 | 23.33° C | 51% | 1022.2 hPa | 0 mm | - | - | - |
| 1777833803 | 23.33° C | 51% | 1022.2 hPa | 0 mm | - | - | - |
| 1777833199 | 23.33° C | 50% | 1022.4 hPa | 0 mm | - | - | - |
* Rain latest hour (hover to see other rain measurements)
** Current wind speed in m/s (hover to see current wind gust speed)